Temp_Advection
nan nan nan nan nan nan nan nan nan nan nan nan nan nan nan nan nan nan nan nan nan nan
nan -0 0 -0 0 0 -0 -1 -1 -1 1 -0 -1 -0 -1 -0 1 0 -1 -1 1 nan
nan -1 -0 -0 0 1 -1 -0 -1 -1 -1 0 -1 -2 -0 -1 -2 0 -2 -1 -2 nan
nan -1 -1 -1 -1 -1 -1 -0 -1 -1 -1 -2 -1 -2 -2 -1 -2 -0 3 -0 0 nan
nan -1 -1 -1 -1 -1 -1 -1 -0 -1 -1 -1 -2 -1 -1 -2 -1 -2 -4 -2 -1 nan
nan -1 -1 -0 -1 -1 -1 -1 -1 -0 -1 -1 -1 -1 -1 -0 -1 -1 -2 -3 -3 nan
nan -0 -0 -0 -0 -1 -1 -1 -1 -1 -0 -0 -0 -2 -2 -1 0 1 0 -1 -1 nan
nan -0 -0 -0 -0 -0 -0 -0 -1 -1 -1 0 1 0 -1 -2 -2 -1 -0 -0 -0 nan
nan 0 -0 -1 -1 -1 -0 -0 -0 -0 -1 -0 0 0 1 -0 -1 -1 -1 -1 -0 nan
nan -1 -1 -1 -1 -1 -1 -1 -1 -0 -0 -1 -0 -1 -1 -0 -0 -0 -0 -1 -1 nan
nan -1 -1 -1 -1 -1 -1 -1 -1 -1 -1 -1 -1 -1 -1 -1 -1 -1 -0 -0 -0 nan
nan -0 -1 -1 -1 -1 -1 -1 -1 -1 -2 -1 -1 -1 -1 -2 -2 -2 -1 -1 -1 nan
nan -1 -0 0 -0 -1 -1 -2 -2 -1 -2 -2 -2 -1 -1 -1 -2 -2 -2 -1 -0 nan
nan nan nan nan nan nan nan nan nan nan nan nan nan nan nan nan nan nan nan nan nan nan
Wind_Speed
29 29 27 25 20 18 15 17 29 30 24 25 24 25 44 54 47 46 47 53 56 58
26 26 28 29 27 26 22 26 19 14 35 19 24 35 12 18 22 27 43 51 51 58
23 22 23 24 27 29 27 23 26 22 22 22 28 31 40 55 29 29 27 12 24 55
28 25 24 23 23 23 22 25 23 26 27 28 27 26 29 36 43 45 55 42 29 36
28 29 25 25 25 24 22 20 22 24 24 24 24 25 25 21 28 34 39 48 50 39
30 33 30 28 26 27 29 27 20 18 20 21 22 23 25 27 25 25 25 28 31 42
30 29 27 26 28 29 30 29 26 24 22 20 18 20 17 19 21 26 26 26 24 23
27 25 24 25 28 29 28 28 28 26 22 22 23 23 24 20 18 17 18 17 18 19
23 23 25 27 28 28 29 29 29 28 27 24 22 23 24 24 23 21 22 20 15 13
22 24 25 28 30 30 31 32 33 30 27 25 24 22 24 26 24 22 20 20 21 20
23 24 26 28 29 31 34 36 35 32 29 27 23 22 22 23 24 24 23 22 20 19
23 26 29 30 31 33 36 36 35 32 31 29 28 24 22 24 26 26 26 25 23 22
22 24 26 29 33 35 33 31 32 32 30 29 29 28 28 27 28 29 29 28 29 25
23 24 23 28 30 32 32 32 32 32 32 30 29 30 29 27 27 28 30 30 30 29
Wind_Direction
28 21 21 17 17 26 10 357 260 259 301 293 319 252 245 247 253 258 258 256 252 252
36 28 21 22 24 17 10 3 7 274 260 280 276 298 358 242 238 253 261 262 258 256
21 20 19 15 16 19 14 352 1 351 340 309 307 287 271 289 309 336 338 295 290 258
16 10 8 4 8 16 10 10 1 356 356 347 331 325 309 290 287 274 289 311 334 349
9 10 9 5 0 359 359 7 5 358 358 351 350 347 345 327 308 306 297 296 300 324
3 1 1 1 358 356 353 352 350 350 356 354 348 353 347 346 337 328 319 301 298 280
354 354 355 354 354 354 355 354 351 344 339 337 345 341 341 337 335 339 339 332 319 306
347 352 355 356 356 354 352 351 349 346 342 337 330 329 326 322 326 324 326 332 328 324
350 354 355 355 353 349 348 348 346 342 338 334 330 325 322 322 319 309 306 310 314 315
351 352 352 350 347 347 345 342 341 337 335 332 331 325 317 314 316 317 314 309 303 303
348 346 344 342 341 339 338 337 337 335 335 333 331 327 322 317 315 314 313 312 311 302
337 337 338 338 335 333 332 332 333 334 333 332 331 333 329 325 321 317 314 314 311 309
339 335 332 329 329 329 331 330 331 331 333 331 329 330 333 335 331 322 317 313 314 313
333 332 328 326 330 333 336 335 334 332 331 331 330 328 331 341 332 327 320 317 316 314
Height
1498 1494 1493 1489 1485 1484 1482 1481 1474 1471 1470 1477 1474 1477 1484 1484 1486 1486 1481 1481 1482 1482
1499 1497 1493 1492 1489 1474 1478 1478 1479 1477 1474 1472 1471 1462 1471 1472 1469 1469 1474 1475 1473 1472
1500 1497 1493 1491 1485 1479 1480 1485 1478 1477 1467 1458 1459 1463 1462 1449 1458 1459 1469 1463 1460 1462
1499 1497 1493 1490 1486 1483 1487 1478 1482 1474 1466 1466 1468 1462 1465 1452 1445 1461 1458 1444 1451 1437
1503 1499 1493 1490 1488 1484 1483 1478 1473 1473 1469 1467 1465 1460 1454 1450 1444 1444 1427 1437 1438 1426
1503 1498 1495 1490 1486 1483 1478 1475 1471 1471 1465 1462 1463 1453 1451 1446 1445 1443 1437 1434 1437 1438
1503 1500 1495 1491 1487 1483 1478 1474 1470 1469 1464 1463 1459 1453 1450 1449 1446 1435 1431 1431 1434 1431
1504 1500 1496 1491 1487 1483 1479 1475 1471 1467 1464 1461 1459 1452 1446 1444 1442 1440 1438 1437 1436 1433
1503 1499 1494 1490 1487 1483 1479 1474 1470 1466 1462 1459 1457 1453 1449 1445 1442 1441 1440 1438 1438 1434
1501 1496 1492 1489 1485 1481 1476 1472 1468 1465 1460 1456 1454 1451 1447 1443 1440 1437 1436 1433 1429 1425
1500 1496 1492 1488 1484 1480 1475 1470 1465 1460 1456 1453 1450 1447 1443 1440 1436 1432 1429 1425 1422 1418
1498 1494 1489 1485 1481 1477 1472 1467 1461 1457 1453 1449 1445 1442 1438 1434 1431 1427 1423 1421 1418 1415
1497 1493 1488 1484 1479 1474 1469 1464 1459 1454 1450 1446 1441 1438 1434 1430 1425 1421 1416 1413 1412 1409
1497 1491 1487 1482 1477 1471 1466 1461 1456 1451 1447 1443 1439 1434 1430 1427 1421 1417 1410 1406 1404 1404